Location: Unspecified
(48.8656°N, 0.0000°E)
Time: 02:03:25
(UTC+00:00)

Vanguard 1 - Visible Passes

Search period start: 25 June 2019 00:00
Search period end: 05 July 2019 00:00
Orbit: 654 x 3830 km, 34.2° (Epoch: 24 June)

Date Brightness Start Highest point End Pass type
(mag) Time Alt. Az. Time Alt. Az. Time Alt. Az.
25 Jun 12.5 02:09:06 12° SW 02:25:12 38° SSE 02:35:53 10° ESE visible
26 Jun 13.0 00:14:22 21° S 00:23:30 28° SSE 00:35:43 10° E visible
26 Jun 12.4 02:28:41 10° SW 02:46:11 41° S 02:56:49 10° ESE visible
26 Jun 13.5 22:19:09 15° SE 22:21:49 15° SE 22:31:07 10° ESE visible
27 Jun 12.9 00:31:35 19° SSW 00:44:25 33° SSE 00:57:10 10° E visible
27 Jun 12.4 02:49:32 10° WSW 03:07:08 43° S 03:17:40 10° ESE visible
27 Jun 13.4 22:35:02 17° SSE 22:42:30 21° SE 22:54:34 10° ESE visible
28 Jun 12.8 00:47:13 12° SW 01:05:23 38° SSE 01:18:24 10° E visible
28 Jun 12.3 03:10:34 10° WSW 03:28:04 44° S 03:38:25 10° ESE visible
28 Jun 13.2 22:46:32 10° S 23:03:14 26° SE 23:16:53 10° E visible
29 Jun 12.7 01:06:41 10° SW 01:26:22 42° SSE 01:39:28 10° ESE visible
29 Jun 13.7 20:55:41 10° SE 21:01:48 12° SE 21:07:43 10° ESE visible
29 Jun 13.1 23:05:38 10° SSW 23:24:02 32° SSE 23:38:39 10° E visible
30 Jun 12.6 01:27:19 10° SW 01:47:24 45° S 02:00:25 10° ESE visible
30 Jun 13.5 21:10:10 10° SSE 21:22:15 17° SE 21:33:33 10° ESE visible
30 Jun 13.0 23:25:16 10° SSW 23:44:54 37° SSE 00:00:06 10° E visible
01 Jul 12.5 01:48:11 10° WSW 02:08:23 48° S 02:21:17 10° ESE visible
01 Jul 13.4 21:27:32 10° S 21:42:46 23° SE 21:56:45 10° E visible
01 Jul 12.9 23:45:19 10° SW 00:05:50 41° SSE 00:21:20 10° E visible
02 Jul 12.5 02:09:14 10° WSW 02:29:23 48° S 02:42:03 10° ESE visible
02 Jul 13.2 21:46:03 10° S 22:03:21 28° SE 22:19:01 10° E visible
03 Jul 12.8 00:05:42 10° SW 00:26:49 45° SSE 00:42:27 10° E visible
03 Jul 12.5 02:30:25 10° WSW 02:50:19 48° S 03:02:45 10° ESE visible
03 Jul 13.1 22:05:15 10° SSW 22:24:03 34° SSE 22:40:48 10° E visible
04 Jul 12.7 00:26:20 10° SW 00:47:51 49° S 01:03:27 10° ESE visible
04 Jul 12.5 02:51:43 10° WSW 03:11:11 46° SSW 03:23:20 10° SE visible
04 Jul 13.0 22:24:57 10° SSW 22:44:51 39° SSE 23:02:17 10° E visible
